Time,TemperatureF,DewpointF,PressureIn,WindDirection,WindDirectionDegrees,WindSpeedMPH,WindSpeedGustMPH,Humidity,HourlyPrecipIn,Conditions,Clouds,dailyrainin,SoftwareType,DateUTC
2013-04-01 00:03:00,34.0,25.0,29.80,SW,234,14.0,-999.0,70,-99.99,,,-99.99,,2013-04-01 04:03:00,
2013-04-01 00:14:00,34.0,25.0,29.80,SW,234,14.0,-999.0,70,-99.99,,,-99.99,,2013-04-01 04:14:00,
2013-04-01 00:24:00,33.0,24.0,29.80,WSW,238,13.0,-999.0,70,-99.99,,,-99.99,,2013-04-01 04:24:00,
2013-04-01 00:33:00,33.0,24.0,29.80,WSW,238,14.0,-999.0,70,-99.99,,,-99.99,,2013-04-01 04:33:00,
2013-04-01 00:43:00,33.0,24.0,29.80,WSW,238,14.0,-999.0,70,-99.99,,,-99.99,,2013-04-01 04:43:00,
2013-04-01 00:53:00,33.0,24.0,29.80,West,260,11.0,-999.0,69,-99.99,,,-99.99,,2013-04-01 04:53:00,
2013-04-01 01:03:00,33.0,24.0,29.80,WSW,243,13.0,-999.0,70,-99.99,,,-99.99,,2013-04-01 05:03:00,
2013-04-01 01:13:00,33.0,24.0,29.80,WSW,243,13.0,-999.0,70,-99.99,,,-99.99,,2013-04-01 05:13:00,
2013-04-01 01:22:00,33.0,24.0,29.80,WSW,240,11.0,-999.0,69,-99.99,,,-99.99,,2013-04-01 05:22:00,
2013-04-01 01:32:00,33.0,24.0,29.81,SW,225,11.0,-999.0,69,-99.99,,,-99.99,,2013-04-01 05:32:00,
2013-04-01 01:43:00,33.0,24.0,29.81,SW,225,11.0,-999.0,69,-99.99,,,-99.99,,2013-04-01 05:43:00,
2013-04-01 01:52:00,33.0,24.0,29.82,West,268,9.0,-999.0,69,-99.99,,,-99.99,,2013-04-01 05:52:00,
2013-04-01 02:02:00,33.0,24.0,29.81,SW,227,11.0,-999.0,69,-99.99,,,-99.99,,2013-04-01 06:02:00,
2013-04-01 02:13:00,33.0,24.0,29.81,SW,227,11.0,-999.0,69,-99.99,,,-99.99,,2013-04-01 06:13:00,
2013-04-01 02:23:00,33.0,24.0,29.82,SW,235,10.0,-999.0,69,-99.99,,,-99.99,,2013-04-01 06:23:00,
2013-04-01 02:33:00,34.0,25.0,29.82,SSW,207,10.0,-999.0,68,-99.99,,,-99.99,,2013-04-01 06:33:00,
2013-04-01 02:43:00,34.0,25.0,29.82,SSW,207,10.0,-999.0,68,-99.99,,,-99.99,,2013-04-01 06:43:00,
2013-04-01 02:52:00,34.0,25.0,29.82,WSW,251,12.0,-999.0,68,-99.99,,,-99.99,,2013-04-01 06:52:00,
2013-04-01 03:03:00,34.0,25.0,29.81,WSW,252,13.0,-999.0,68,-99.99,,,-99.99,,2013-04-01 07:03:00,
2013-04-01 03:13:00,34.0,25.0,29.81,WSW,252,13.0,-999.0,68,-99.99,,,-99.99,,2013-04-01 07:13:00,
2013-04-01 03:22:00,34.0,25.0,29.81,WSW,251,11.0,-999.0,68,-99.99,,,-99.99,,2013-04-01 07:22:00,
2013-04-01 03:32:00,34.0,25.0,29.81,SW,233,11.0,-999.0,68,-99.99,,,-99.99,,2013-04-01 07:32:00,
2013-04-01 03:42:00,34.0,25.0,29.81,SW,233,11.0,-999.0,68,-99.99,,,-99.99,,2013-04-01 07:42:00,
2013-04-01 03:52:00,34.0,25.0,29.81,WSW,249,11.0,-999.0,68,-99.99,,,-99.99,,2013-04-01 07:52:00,
2013-04-01 04:03:00,34.0,25.0,29.81,WSW,254,11.0,-999.0,68,-99.99,,,-99.99,,2013-04-01 08:03:00,
2013-04-01 04:12:00,34.0,25.0,29.81,WSW,254,11.0,-999.0,68,-99.99,,,-99.99,,2013-04-01 08:12:00,
2013-04-01 04:22:00,34.0,25.0,29.81,SW,225,11.0,-999.0,68,-99.99,,,-99.99,,2013-04-01 08:22:00,
2013-04-01 04:32:00,34.0,25.0,29.80,WSW,244,13.0,-999.0,68,-99.99,,,-99.99,,2013-04-01 08:32:00,
2013-04-01 04:43:00,34.0,25.0,29.80,WSW,244,13.0,-999.0,68,-99.99,,,-99.99,,2013-04-01 08:43:00,
2013-04-01 04:52:00,34.0,25.0,29.80,WSW,242,11.0,-999.0,68,-99.99,,,-99.99,,2013-04-01 08:52:00,
2013-04-01 05:02:00,34.0,25.0,29.79,SW,223,11.0,-999.0,68,-99.99,,,-99.99,,2013-04-01 09:02:00,
2013-04-01 05:12:00,34.0,25.0,29.79,SW,223,11.0,-999.0,68,-99.99,,,-99.99,,2013-04-01 09:12:00,
2013-04-01 05:23:00,34.0,25.0,29.79,SW,225,12.0,-999.0,68,-99.99,,,-99.99,,2013-04-01 09:23:00,
2013-04-01 05:33:00,35.0,26.0,29.79,SW,234,12.0,-999.0,68,-99.99,,,-99.99,,2013-04-01 09:33:00,
2013-04-01 05:43:00,35.0,26.0,29.79,SW,234,12.0,-999.0,68,-99.99,,,-99.99,,2013-04-01 09:43:00,
2013-04-01 05:53:00,35.0,26.0,29.79,WSW,255,13.0,-999.0,68,-99.99,,,-99.99,,2013-04-01 09:53:00,
2013-04-01 06:03:00,35.0,26.0,29.79,West,269,12.0,-999.0,68,-99.99,,,-99.99,,2013-04-01 10:03:00,
2013-04-01 06:13:00,35.0,26.0,29.79,West,269,12.0,-999.0,68,-99.99,,,-99.99,,2013-04-01 10:13:00,
2013-04-01 06:23:00,35.0,26.0,29.79,WSW,245,13.0,-999.0,68,-99.99,,,-99.99,,2013-04-01 10:23:00,
2013-04-01 06:33:00,35.0,26.0,29.80,SW,234,12.0,-999.0,68,-99.99,,,-99.99,,2013-04-01 10:33:00,
2013-04-01 06:42:00,35.0,26.0,29.80,SW,234,12.0,-999.0,68,-99.99,,,-99.99,,2013-04-01 10:42:00,
2013-04-01 06:53:00,35.0,26.0,29.80,WSW,257,11.0,-999.0,68,-99.99,,,-99.99,,2013-04-01 10:53:00,
2013-04-01 07:03:00,35.0,26.0,29.80,SSW,211,12.0,-999.0,68,-99.99,,,-99.99,,2013-04-01 11:03:00,
2013-04-01 07:13:00,35.0,26.0,29.80,SSW,211,12.0,-999.0,68,-99.99,,,-99.99,,2013-04-01 11:13:00,
2013-04-01 07:23:00,35.0,26.0,29.80,WNW,290,10.0,-999.0,68,-99.99,,,-99.99,,2013-04-01 11:23:00,
2013-04-01 07:33:00,35.0,26.0,29.80,WSW,252,13.0,-999.0,68,-99.99,,,-99.99,,2013-04-01 11:33:00,
2013-04-01 07:42:00,35.0,26.0,29.80,WSW,252,13.0,-999.0,68,-99.99,,,-99.99,,2013-04-01 11:42:00,
2013-04-01 07:52:00,34.0,25.0,29.80,SW,228,11.0,-999.0,68,-99.99,,,-99.99,,2013-04-01 11:52:00,
2013-04-01 08:03:00,34.0,25.0,29.81,West,279,10.0,-999.0,68,-99.99,,,-99.99,,2013-04-01 12:03:00,
2013-04-01 08:12:00,34.0,25.0,29.81,West,279,10.0,-999.0,68,-99.99,,,-99.99,,2013-04-01 12:12:00,
2013-04-01 08:23:00,35.0,26.0,29.81,SW,217,11.0,-999.0,68,-99.99,,,-99.99,,2013-04-01 12:23:00,
2013-04-01 08:32:00,35.0,26.0,29.81,WSW,243,13.0,-999.0,68,-99.99,,,-99.99,,2013-04-01 12:32:00,
2013-04-01 08:42:00,35.0,26.0,29.81,WSW,243,13.0,-999.0,68,-99.99,,,-99.99,,2013-04-01 12:42:00,
2013-04-01 08:52:00,35.0,26.0,29.81,SSW,209,13.0,-999.0,68,-99.99,,,-99.99,,2013-04-01 12:52:00,
2013-04-01 09:03:00,34.0,25.0,29.81,WSW,254,12.0,-999.0,68,-99.99,,,-99.99,,2013-04-01 13:03:00,
2013-04-01 09:12:00,34.0,25.0,29.81,WSW,254,12.0,-999.0,68,-99.99,,,-99.99,,2013-04-01 13:12:00,
2013-04-01 09:22:00,34.0,25.0,29.80,SW,228,12.0,-999.0,68,-99.99,,,-99.99,,2013-04-01 13:22:00,
2013-04-01 09:33:00,34.0,25.0,29.80,SW,223,10.0,-999.0,68,-99.99,,,-99.99,,2013-04-01 13:33:00,
2013-04-01 09:42:00,34.0,25.0,29.80,SW,223,10.0,-999.0,68,-99.99,,,-99.99,,2013-04-01 13:42:00,
2013-04-01 09:52:00,34.0,25.0,29.80,WSW,244,14.0,-999.0,68,-99.99,,,-99.99,,2013-04-01 13:52:00,
2013-04-01 10:04:00,34.0,25.0,29.80,SW,234,13.0,-999.0,68,-99.99,,,-99.99,,2013-04-01 14:04:00,
2013-04-01 10:12:00,34.0,25.0,29.80,SW,234,13.0,-999.0,68,-99.99,,,-99.99,,2013-04-01 14:12:00,
2013-04-01 10:22:00,34.0,25.0,29.81,WSW,250,15.0,-999.0,68,-99.99,,,-99.99,,2013-04-01 14:22:00,
2013-04-01 10:33:00,34.0,25.0,29.81,SW,217,14.0,-999.0,68,-99.99,,,-99.99,,2013-04-01 14:33:00,
2013-04-01 10:42:00,34.0,25.0,29.81,SW,217,14.0,-999.0,68,-99.99,,,-99.99,,2013-04-01 14:42:00,
2013-04-01 10:52:00,34.0,25.0,29.81,West,261,13.0,-999.0,68,-99.99,,,-99.99,,2013-04-01 14:52:00,
2013-04-01 11:03:00,34.0,25.0,29.82,WNW,293,12.0,-999.0,68,-99.99,,,-99.99,,2013-04-01 15:03:00,
2013-04-01 11:13:00,34.0,25.0,29.82,WNW,293,12.0,-999.0,68,-99.99,,,-99.99,,2013-04-01 15:13:00,
2013-04-01 11:22:00,33.0,24.0,29.82,SW,231,13.0,-999.0,69,-99.99,,,-99.99,,2013-04-01 15:22:00,
2013-04-01 11:34:00,33.0,24.0,29.81,WSW,242,12.0,-999.0,68,-99.99,,,-99.99,,2013-04-01 15:34:00,
2013-04-01 11:43:00,33.0,24.0,29.81,WSW,242,12.0,-999.0,68,-99.99,,,-99.99,,2013-04-01 15:43:00,
2013-04-01 11:53:00,33.0,24.0,29.83,SW,231,12.0,-999.0,69,-99.99,,,-99.99,,2013-04-01 15:53:00,
2013-04-01 12:03:00,32.0,23.0,29.83,WSW,244,15.0,-999.0,69,-99.99,,,-99.99,,2013-04-01 16:03:00,
2013-04-01 12:13:00,32.0,23.0,29.83,WSW,244,15.0,-999.0,69,-99.99,,,-99.99,,2013-04-01 16:13:00,
2013-04-01 12:23:00,33.0,28.0,29.83,SW,217,15.0,-999.0,80,-99.99,,,-99.99,,2013-04-01 16:23:00,
2013-04-01 12:33:00,33.0,31.0,29.83,WSW,248,12.0,-999.0,91,-99.99,,,-99.99,,2013-04-01 16:33:00,
2013-04-01 12:43:00,33.0,31.0,29.83,WSW,248,12.0,-999.0,91,-99.99,,,-99.99,,2013-04-01 16:43:00,
2013-04-01 12:52:00,32.0,29.0,29.84,West,274,11.0,-999.0,89,-99.99,,,-99.99,,2013-04-01 16:52:00,
2013-04-01 13:03:00,32.0,26.0,29.83,SSW,196,13.0,-999.0,77,-99.99,,,-99.99,,2013-04-01 17:03:00,
2013-04-01 13:13:00,32.0,26.0,29.83,SSW,196,13.0,-999.0,77,-99.99,,,-99.99,,2013-04-01 17:13:00,
2013-04-01 13:23:00,32.0,25.0,29.83,SW,236,13.0,-999.0,75,-99.99,,,-99.99,,2013-04-01 17:23:00,
2013-04-01 13:32:00,32.0,25.0,29.83,SW,236,13.0,-999.0,75,-99.99,,,-99.99,,2013-04-01 17:32:00,
2013-04-01 13:42:00,32.0,25.0,29.83,SW,236,13.0,-999.0,75,-99.99,,,-99.99,,2013-04-01 17:42:00,
2013-04-01 13:52:00,33.0,31.0,29.83,WSW,238,15.0,-999.0,92,-99.99,,,-99.99,,2013-04-01 17:52:00,
2013-04-01 14:03:00,33.0,31.0,29.83,WSW,244,13.0,-999.0,91,-99.99,,,-99.99,,2013-04-01 18:03:00,
2013-04-01 14:12:00,33.0,31.0,29.83,WSW,244,13.0,-999.0,91,-99.99,,,-99.99,,2013-04-01 18:12:00,
2013-04-01 14:22:00,32.0,28.0,29.83,West,259,14.0,-999.0,86,-99.99,,,-99.99,,2013-04-01 18:22:00,
2013-04-01 14:33:00,31.0,26.0,29.83,WSW,248,13.0,-999.0,83,-99.99,,,-99.99,,2013-04-01 18:33:00,
2013-04-01 14:43:00,31.0,26.0,29.83,WSW,248,13.0,-999.0,83,-99.99,,,-99.99,,2013-04-01 18:43:00,
2013-04-01 14:52:00,31.0,26.0,29.84,SW,227,11.0,-999.0,81,-99.99,,,-99.99,,2013-04-01 18:52:00,
2013-04-01 15:04:00,30.0,24.0,29.84,WNW,299,11.0,-999.0,78,-99.99,,,-99.99,,2013-04-01 19:04:00,
2013-04-01 15:13:00,30.0,24.0,29.84,WNW,299,11.0,-999.0,78,-99.99,,,-99.99,,2013-04-01 19:13:00,
2013-04-01 15:23:00,29.0,23.0,29.84,West,269,12.0,-999.0,78,-99.99,,,-99.99,,2013-04-01 19:23:00,
2013-04-01 15:32:00,28.0,22.0,29.84,WSW,252,12.0,-999.0,78,-99.99,,,-99.99,,2013-04-01 19:32:00,
2013-04-01 15:42:00,28.0,22.0,29.84,WSW,252,12.0,-999.0,78,-99.99,,,-99.99,,2013-04-01 19:42:00,
2013-04-01 15:53:00,28.0,22.0,29.85,SW,229,14.0,-999.0,78,-99.99,,,-99.99,,2013-04-01 19:53:00,
2013-04-01 16:02:00,27.0,21.0,29.85,NW,309,11.0,-999.0,79,-99.99,,,-99.99,,2013-04-01 20:02:00,
2013-04-01 16:13:00,27.0,21.0,29.85,NW,309,11.0,-999.0,79,-99.99,,,-99.99,,2013-04-01 20:13:00,
2013-04-01 16:23:00,27.0,21.0,29.85,SW,231,12.0,-999.0,79,-99.99,,,-99.99,,2013-04-01 20:23:00,
2013-04-01 16:33:00,26.0,21.0,29.86,WNW,284,13.0,-999.0,81,-99.99,,,-99.99,,2013-04-01 20:33:00,
2013-04-01 16:43:00,26.0,21.0,29.86,WNW,284,13.0,-999.0,81,-99.99,,,-99.99,,2013-04-01 20:43:00,
2013-04-01 16:52:00,26.0,21.0,29.86,WSW,251,12.0,-999.0,82,-99.99,,,-99.99,,2013-04-01 20:52:00,
2013-04-01 17:03:00,25.0,21.0,29.86,WSW,242,13.0,-999.0,84,-99.99,,,-99.99,,2013-04-01 21:03:00,
2013-04-01 17:12:00,25.0,21.0,29.86,WSW,242,13.0,-999.0,84,-99.99,,,-99.99,,2013-04-01 21:12:00,
2013-04-01 17:23:00,25.0,21.0,29.87,SW,215,13.0,-999.0,83,-99.99,,,-99.99,,2013-04-01 21:23:00,
2013-04-01 17:33:00,25.0,21.0,29.87,SW,232,9.0,-999.0,83,-99.99,,,-99.99,,2013-04-01 21:33:00,
2013-04-01 17:43:00,25.0,21.0,29.87,SW,232,9.0,-999.0,83,-99.99,,,-99.99,,2013-04-01 21:43:00,
2013-04-01 17:52:00,25.0,21.0,29.87,WSW,240,11.0,-999.0,83,-99.99,,,-99.99,,2013-04-01 21:52:00,
2013-04-01 18:03:00,25.0,21.0,29.88,West,268,12.0,-999.0,85,-99.99,,,-99.99,,2013-04-01 22:03:00,
2013-04-01 18:13:00,25.0,21.0,29.88,West,268,12.0,-999.0,85,-99.99,,,-99.99,,2013-04-01 22:13:00,
2013-04-01 18:23:00,25.0,21.0,29.88,SW,224,13.0,-999.0,85,-99.99,,,-99.99,,2013-04-01 22:23:00,
2013-04-01 18:33:00,25.0,21.0,29.88,WNW,295,15.0,-999.0,85,-99.99,,,-99.99,,2013-04-01 22:33:00,
2013-04-01 18:43:00,25.0,21.0,29.88,WNW,295,15.0,-999.0,85,-99.99,,,-99.99,,2013-04-01 22:43:00,
2013-04-01 18:52:00,26.0,22.0,29.88,SW,224,13.0,-999.0,84,-99.99,,,-99.99,,2013-04-01 22:52:00,
2013-04-01 19:02:00,25.0,22.0,29.89,West,267,12.0,-999.0,88,-99.99,,,-99.99,,2013-04-01 23:02:00,
2013-04-01 19:12:00,25.0,22.0,29.89,West,267,12.0,-999.0,88,-99.99,,,-99.99,,2013-04-01 23:12:00,
2013-04-01 19:23:00,25.0,22.0,29.90,WSW,248,11.0,-999.0,87,-99.99,,,-99.99,,2013-04-01 23:23:00,
2013-04-01 19:32:00,24.0,21.0,29.91,WSW,239,11.0,-999.0,88,-99.99,,,-99.99,,2013-04-01 23:32:00,
2013-04-01 19:43:00,24.0,21.0,29.91,WSW,239,11.0,-999.0,88,-99.99,,,-99.99,,2013-04-01 23:43:00,
2013-04-01 19:52:00,24.0,21.0,29.91,WSW,241,10.0,-999.0,89,-99.99,,,-99.99,,2013-04-01 23:52:00,
2013-04-01 20:03:00,24.0,21.0,29.92,WSW,248,8.0,-999.0,88,-99.99,,,-99.99,,2013-04-02 00:03:00,
2013-04-01 20:12:00,24.0,21.0,29.92,WSW,248,8.0,-999.0,88,-99.99,,,-99.99,,2013-04-02 00:12:00,
2013-04-01 20:22:00,24.0,21.0,29.92,WSW,250,10.0,-999.0,89,-99.99,,,-99.99,,2013-04-02 00:22:00,
2013-04-01 20:33:00,24.0,22.0,29.92,WSW,244,9.0,-999.0,91,-99.99,,,-99.99,,2013-04-02 00:33:00,
2013-04-01 20:42:00,24.0,22.0,29.92,WSW,244,9.0,-999.0,91,-99.99,,,-99.99,,2013-04-02 00:42:00,
2013-04-01 20:52:00,23.0,21.0,29.92,WSW,255,9.0,-999.0,92,-99.99,,,-99.99,,2013-04-02 00:52:00,
2013-04-01 21:02:00,23.0,21.0,29.93,WSW,245,8.0,-999.0,92,-99.99,,,-99.99,,2013-04-02 01:02:00,
2013-04-01 21:12:00,23.0,21.0,29.93,WSW,245,8.0,-999.0,92,-99.99,,,-99.99,,2013-04-02 01:12:00,
2013-04-01 21:22:00,23.0,21.0,29.94,WSW,252,11.0,-999.0,91,-99.99,,,-99.99,,2013-04-02 01:22:00,
2013-04-01 21:32:00,23.0,21.0,29.94,West,259,10.0,-999.0,91,-99.99,,,-99.99,,2013-04-02 01:32:00,
2013-04-01 21:42:00,23.0,21.0,29.94,West,259,10.0,-999.0,91,-99.99,,,-99.99,,2013-04-02 01:42:00,
2013-04-01 21:52:00,23.0,21.0,29.96,SW,236,9.0,-999.0,90,-99.99,,,-99.99,,2013-04-02 01:52:00,
2013-04-01 22:03:00,23.0,21.0,29.96,WSW,237,9.0,-999.0,90,-99.99,,,-99.99,,2013-04-02 02:03:00,
2013-04-01 22:12:00,23.0,21.0,29.96,WSW,237,9.0,-999.0,90,-99.99,,,-99.99,,2013-04-02 02:12:00,
2013-04-01 22:22:00,22.0,19.0,29.96,NW,316,11.0,-999.0,89,-99.99,,,-99.99,,2013-04-02 02:22:00,
2013-04-01 22:32:00,22.0,19.0,29.96,NNW,340,9.0,-999.0,89,-99.99,,,-99.99,,2013-04-02 02:32:00,
2013-04-01 22:42:00,22.0,19.0,29.96,NNW,340,9.0,-999.0,89,-99.99,,,-99.99,,2013-04-02 02:42:00,
2013-04-01 22:52:00,22.0,18.0,29.97,WNW,291,10.0,-999.0,85,-99.99,,,-99.99,,2013-04-02 02:52:00,
2013-04-01 23:02:00,22.0,17.0,29.97,WNW,294,8.0,-999.0,81,-99.99,,,-99.99,,2013-04-02 03:02:00,
2013-04-01 23:12:00,22.0,17.0,29.97,WNW,294,8.0,-999.0,81,-99.99,,,-99.99,,2013-04-02 03:12:00,
2013-04-01 23:22:00,22.0,17.0,29.98,SSW,207,9.0,-999.0,80,-99.99,,,-99.99,,2013-04-02 03:22:00,
2013-04-01 23:33:00,22.0,17.0,29.98,WSW,257,9.0,-999.0,80,-99.99,,,-99.99,,2013-04-02 03:33:00,
2013-04-01 23:43:00,22.0,17.0,29.98,WSW,257,9.0,-999.0,80,-99.99,,,-99.99,,2013-04-02 03:43:00,
2013-04-01 23:53:00,22.0,16.0,29.98,SW,232,11.0,-999.0,78,-99.99,,,-99.99,,2013-04-02 03:53:00,